Other Public Products
Issued by NWS Grand Forks, ND

Home | Current Version | Previous Version | Text Only | Print | Product List | Glossary Off
Versions: 1 2 3 4 5 6 7 8 9 10 11 12 13 14 15 16 17 18 19 20 21 22 23 24 25 26 27 28 29 30 31 32 33 34 35 36 37 38 39 40 41 42 43 44 45 46 47 48 49 50

332
FPUS83 KFGF 030610
OPUFGF
PRAIRIE TO PINES WEATHER ROUNDUP
NATIONAL WEATHER SERVICE EASTERN NORTH DAKOTA/GRAND FORKS ND
100 AM CDT TUE MAY 03 2016

 **SATELLITE DATA USED TO AUGMENT SKY COVER AT AUTOMATED STATIONS**
 *****  WEATHER ACROSS EASTERN NORTH DAKOTA  *****

CITY           SKY/WX    TMP DP  RH WIND       PRES   REMARKS
GRAND FORKS    CLOUDY    53  38  56 W10       29.94F
6HR MIN TEMP:  53; 6HR MAX TEMP:  72;

GRAND FORKS AF CLOUDY    54  36  50 W12       29.95F
GRAND CITY NWS NOT AVBL
BUXTON         NOT AVBL
DEVILS LAKE    CLOUDY    51  40  65 SW9       29.98F
6HR MIN TEMP:  51; 6HR MAX TEMP:  65;

FARGO          CLOUDY    50  35  56 W6        29.97S
6HR MIN TEMP:  50; 6HR MAX TEMP:  69;

WAHPETON ARPT  CLEAR     46  32  57 W9        29.99R
$$

 *****  WEATHER ACROSS CENTRAL AND WESTERN NORTH DAKOTA  *****

CITY           SKY/WX    TMP DP  RH WIND       PRES   REMARKS
JAMESTOWN      CLOUDY    42  37  82 CALM      29.99F
6HR MIN TEMP:  41; 6HR MAX TEMP:  59;

BISMARCK       CLOUDY    45  42  89 CALM      30.02F
6HR MIN TEMP:  44; 6HR MAX TEMP:  64;

MINOT          MOCLDY    55  37  50 SW7       29.98S
6HR MIN TEMP:  55; 6HR MAX TEMP:  72;

MINOT AFB      NOT AVBL
GARRISON         N/A     50  36  58 CALM      30.00S
6HR MIN TEMP:  48; 6HR MAX TEMP:  67;

WILLISTON      CLEAR     41  35  79 CALM      30.02S
6HR MIN TEMP:  41; 6HR MAX TEMP:  73;

DICKINSON      PTCLDY    42  31  64 SW3       30.01F
6HR MIN TEMP:  39; 6HR MAX TEMP:  65;

HETTINGER      CLEAR     32  29  88 W3        30.05S
6HR MIN TEMP:  32; 6HR MAX TEMP:  65;

$$

 *****  OTHER OBSERVATIONS NORTHEAST NORTH DAKOTA  *****

CITY           SKY/WX    TMP DP  RH WIND       PRES   REMARKS
WALHALLA       FAIR      57  36  44 W12G21    29.92F
LANGDON        FAIR      48  37  66 SW12      29.96S
CAVALIER       FAIR      57  36  44 W18       29.91F
GRAFTON        FAIR      54  41  62 W12       29.94F
CANDO          FAIR      46  34  61 SW9       30.00S
FORT TOTTEN      N/A     51  36  56 S5        29.95S
ROLLA          MOCLDY    52  36  54 SW13      29.98S
RUGBY          FAIR      50  39  66 S8        29.98S
 ***** THE ABOVE OBSERVATIONS ARE NON NWS ARE NOT QUALITY
        CONTROLLED AND MAY MIS-REPORT RAIN FOR SNOW...
$$

 *****  OTHER OBSERVATIONS SOUTHEAST NORTH DAKOTA *****

CITY           SKY/WX    TMP DP  RH WIND       PRES   REMARKS
COOPERSTOWN    NOT AVBL
VALLEY CITY    FAIR      46  39  76 W9        30.02S
OAKES            N/A    N/A N/A N/A MISG        N/A
GWINNER        FAIR      46  39  76 NW3       30.00S
SHEYENNE NWR     N/A     43  36  75 W5        29.95S
BUFFALO        NOT AVBL
WYNDMERE         N/A     50  37  62 W6          N/A
 ***** THE ABOVE OBSERVATIONS ARE NON NWS ARE NOT QUALITY
       CONTROLLED AND MAY MIS-REPORT RAIN FOR SNOW...
$$

  *****  WEATHER ACROSS NORTHERN MINNESOTA  *****

CITY           SKY/WX    TMP DP  RH WIND       PRES   REMARKS
FLAG ISLAND    CLOUDY    54  30  40 W13       29.83F
WARROAD        CLOUDY    54  36  50 SW8       29.88F
ROSEAU         CLOUDY    52  37  58 SW7       29.88F
HALLOCK        PTCLDY    54  34  47 W12       29.90F
THF RVR FALLS  PTCLDY    54  34  47 W12       29.94F
6HR MIN TEMP:  52; 6HR MAX TEMP:  68;

HALSTAD        NOT AVBL
FOSSTON        PTCLDY    52  36  54 W6        29.95F
BAUDETTE       PTCLDY    48  31  51 SW5       29.87F
6HR MIN TEMP:  47; 6HR MAX TEMP:  64;

WASKISH        CLOUDY    48  36  61 S6        29.89F
CROOKSTON      CLOUDY    55  37  50 W10       29.95F
$$
  *****  WEATHER ACROSS CENTRAL AND WEST MINNESOTA  *****

CITY           SKY/WX    TMP DP  RH WIND       PRES   REMARKS
BEMIDJI        PTCLDY    48  32  53 W8        29.93S
PARK RAPIDS    PTCLDY    46  31  55 W7        29.95S
6HR MIN TEMP:  45; 6HR MAX TEMP:  66;

WADENA         CLEAR     48  30  49 W7        29.97R
DETROIT LAKES  CLOUDY    52  37  58 NW7       29.98F
MOORHEAD       PTCLDY    54  37  54 W8        29.98S
FERGUS FALLS   CLEAR     52  37  58 CALM      29.96S
ELBOW LAKE     FAIR      50  35  55 NW5       29.99S
6HR MIN TEMP:  49; 6HR MAX TEMP:  64;

MORRIS MN      CLEAR     48  34  57 NW5       29.98S
STAPLES        CLEAR     48  28  46 SW3       29.96F
WHEATON        CLEAR     50  39  66 W6        30.01S
$$
  *****  WEATHER ELSEWHERE ACROSS MINNESOTA  *****

CITY           SKY/WX    TMP DP  RH WIND       PRES   REMARKS
DULUTH         CLEAR     46  31  55 W7        29.93F
6HR MIN TEMP:  44; 6HR MAX TEMP:  61;

INTRNTL FALLS  CLOUDY    37  31  78 CALM      29.86F
6HR MIN TEMP:  37; 6HR MAX TEMP:  67;

ELY            CLOUDY    46  30  53 S3        29.89F
CLOQUET        CLEAR     46  30  53 SW6       29.93F
BRAINERD       CLEAR     47  32  56 S3        29.96F
6HR MIN TEMP:  46; 6HR MAX TEMP:  63;

HIBBING        CLEAR     35  30  82 CALM      29.91F
6HR MIN TEMP:  35; 6HR MAX TEMP:  63;

ALEXANDRIA     CLEAR     48  32  53 SW6       29.99S
6HR MIN TEMP:  44; 6HR MAX TEMP:  64;

SAINT CLOUD    CLEAR     44  36  73 CALM      29.97F
6HR MIN TEMP:  44; 6HR MAX TEMP:  64;

MINNEAPOLIS    CLEAR     54  35  48 SW6       29.99S
6HR MIN TEMP:  54; 6HR MAX TEMP:  66;

$$

  *****  WEATHER ACROSS SOUTH DAKOTA  *****

CITY           SKY/WX    TMP DP  RH WIND       PRES   REMARKS
SIOUX FALLS    CLEAR     41  37  86 CALM      30.04S
6HR MIN TEMP:  41; 6HR MAX TEMP:  61;

BROOKINGS      CLEAR     45  39  79 W3        30.02S
WATERTOWN      CLEAR     43  37  79 SW6       30.01S
6HR MIN TEMP:  42; 6HR MAX TEMP:  61;

HURON          CLEAR     45  41  86 SW5       30.02S
6HR MIN TEMP:  44; 6HR MAX TEMP:  59;

SISSETON         N/A     45  36  70 NW6       29.99S
ABERDEEN       CLEAR     39  34  82 S3        30.02R
6HR MIN TEMP:  39; 6HR MAX TEMP:  62;

MITCHELL       CLEAR     48  45  89 SW3       30.04S
PIERRE         CLEAR     44  40  85 W6        30.03R
6HR MIN TEMP:  40; 6HR MAX TEMP:  56;

MOBRIDGE       CLEAR     41  39  93 CALM      29.99S
RAPID CITY     CLEAR     43  36  76 N9        30.06R
6HR MIN TEMP:  41; 6HR MAX TEMP:  60; 6HR PCP: TRACE;

$$

  *****  SOME WEATHER IN NEARBY STATES *****

CITY           SKY/WX    TMP DP  RH WIND       PRES   REMARKS
GLASGOW MT     CLEAR     57  36  45 NE5       30.04R
6HR MIN TEMP:  52; 6HR MAX TEMP:  77;

GREAT FALLS MT CLEAR     52  34  50 E6        30.10F
6HR MIN TEMP:  51; 6HR MAX TEMP:  72;

CHEYENNE WY    CLEAR     43  27  53 N14       30.15S
6HR MIN TEMP:  43; 6HR MAX TEMP:  55;

SCOTTSBLUFF NE CLOUDY    46  39  76 SW5       30.11R
6HR MIN TEMP:  44; 6HR MAX TEMP:  64; 6HR PCP: TRACE;

OMAHA NE       PTCLDY    47  44  90 CALM      30.05S
6HR MIN TEMP:  46; 6HR MAX TEMP:  63;

DES MOINES IA  PTCLDY    48  40  73 CALM      30.05S
6HR MIN TEMP:  47; 6HR MAX TEMP:  60;

DAVENPORT IA   CLEAR     45  42  89 W5        30.03S
6HR MIN TEMP:  45; 6HR MAX TEMP:  57;

CHICAGO IL     CLEAR     44  35  70 CALM      30.00R
6HR MIN TEMP:  42; 6HR MAX TEMP:  55;

EAU CLAIRE WI  CLEAR     45  37  73 SW3       29.97F
6HR MIN TEMP:  43; 6HR MAX TEMP:  63;

LA CROSSE WI   PTCLDY    49  41  74 E5        29.99F
6HR MIN TEMP:  49; 6HR MAX TEMP:  64;

$$

  *****  SOME NATIONAL WEATHER *****

CITY           SKY/WX    TMP DP  RH WIND       PRES   REMARKS
LA GUARDIA NY  LGT RAIN  54  51  90 CALM      29.91S
6HR MIN TEMP:  54; 6HR MAX TEMP:  60; 6HR PCP:  0.09;              C1F1C2F2C3F3C4F4C5F5C6F6C7F7C8F8C9F9CaFaCbFbCcFcCdFdCe!



USA.gov is the U.S. government's official web portal to all federal, state and local government web resources and services.